Météo par heure à Kytaihorod

Ce jour, 24 Juillet, Samedi

Heure Température Précipitation Vent Pression Humidité
00:00 +17°C° 0 mm 2 m/s 744 mmHg 66%
01:00 +17°C° 0 mm 2 m/s 744 mmHg 68%
02:00 +17°C° 0 mm 2 m/s 744 mmHg 70%
03:00 +17°C° 0 mm 2 m/s 744 mmHg 70%
04:00 +17°C° 0 mm 2 m/s 744 mmHg 71%
05:00 +17°C° 0 mm 2 m/s 744 mmHg 71%
06:00 +19°C° 0 mm 2 m/s 745 mmHg 67%
07:00 +20°C° 0 mm 2 m/s 745 mmHg 63%
08:00 +23°C° 0 mm 2 m/s 745 mmHg 59%
09:00 +23°C° 0 mm 2 m/s 745 mmHg 57%
10:00 +24°C° 0 mm 2 m/s 745 mmHg 54%
11:00 +25°C° 0 mm 2 m/s 746 mmHg 52%
12:00 +26°C° 0 mm 2 m/s 745 mmHg 48%
13:00 +27°C° 0 mm 2 m/s 745 mmHg 44%
14:00 +27°C° 0 mm 3 m/s 745 mmHg 41%
15:00 +27°C° 0 mm 3 m/s 746 mmHg 44%
16:00 +26°C° 0 mm 3 m/s 746 mmHg 47%
17:00 +25°C° 0 mm 3 m/s 746 mmHg 51%
18:00 +24°C° 0 mm 2 m/s 746 mmHg 53%
19:00 +23°C° 0 mm 2 m/s 746 mmHg 55%
20:00 +22°C° 0 mm 1 m/s 746 mmHg 58%
21:00 +22°C° 0 mm 1 m/s 746 mmHg 58%
22:00 +21°C° 0 mm 1 m/s 747 mmHg 58%
23:00 +21°C° 0 mm 1 m/s 747 mmHg 59%

Demain, 25 Juillet, Dimanche

Heure Température Précipitation Vent Pression Humidité
00:00 +20°C° 0 mm 1 m/s 747 mmHg 60%
01:00 +20°C° 0 mm 1 m/s 747 mmHg 62%
02:00 +20°C° 0 mm 1 m/s 747 mmHg 63%
03:00 +20°C° 0 mm 1 m/s 747 mmHg 64%
04:00 +20°C° 0 mm 1 m/s 747 mmHg 65%
05:00 +20°C° 0 mm 1 m/s 747 mmHg 66%
06:00 +21°C° 0 mm 1 m/s 748 mmHg 63%
07:00 +22°C° 0 mm 1 m/s 748 mmHg 59%
08:00 +24°C° 0 mm 1 m/s 748 mmHg 56%
09:00 +25°C° 0 mm 1 m/s 748 mmHg 51%
10:00 +26°C° 0 mm 1 m/s 748 mmHg 46%
11:00 +27°C° 0 mm 2 m/s 748 mmHg 42%
12:00 +28°C° 0 mm 2 m/s 748 mmHg 42%
13:00 +28°C° 0 mm 2 m/s 748 mmHg 42%
14:00 +28°C° 0 mm 2 m/s 748 mmHg 42%
15:00 +28°C° 0 mm 2 m/s 748 mmHg 42%
16:00 +28°C° 0 mm 2 m/s 748 mmHg 42%
17:00 +28°C° 0 mm 2 m/s 748 mmHg 42%
18:00 +27°C° 0 mm 2 m/s 748 mmHg 45%
19:00 +25°C° 0 mm 2 m/s 748 mmHg 48%
20:00 +24°C° 0 mm 2 m/s 748 mmHg 51%
21:00 +23°C° 0 mm 2 m/s 749 mmHg 53%
22:00 +23°C° 0 mm 2 m/s 749 mmHg 54%
23:00 +23°C° 0 mm 2 m/s 749 mmHg 55%

Après-demain, 26 Juillet, Lundi

Heure Température Précipitation Vent Pression Humidité
00:00 +21°C° 0 mm 2 m/s 749 mmHg 57%
01:00 +21°C° 0 mm 2 m/s 749 mmHg 59%
02:00 +21°C° 0 mm 2 m/s 749 mmHg 62%
03:00 +20°C° 0 mm 2 m/s 749 mmHg 63%
04:00 +20°C° 0 mm 2 m/s 749 mmHg 65%
05:00 +20°C° 0 mm 2 m/s 749 mmHg 66%
06:00 +21°C° 0 mm 2 m/s 749 mmHg 63%
07:00 +24°C° 0 mm 3 m/s 750 mmHg 59%
08:00 +25°C° 0 mm 3 m/s 750 mmHg 56%
09:00 +27°C° 0 mm 3 m/s 750 mmHg 51%
10:00 +28°C° 0 mm 3 m/s 750 mmHg 45%
11:00 +30°C° 0 mm 3 m/s 750 mmHg 40%
12:00 +29°C° 0 mm 3 m/s 750 mmHg 41%
13:00 +29°C° 0 mm 3 m/s 749 mmHg 43%
14:00 +29°C° 0 mm 3 m/s 749 mmHg 44%
15:00 +28°C° 0 mm 2 m/s 749 mmHg 45%
16:00 +28°C° 0 mm 2 m/s 749 mmHg 46%
17:00 +27°C° 0 mm 2 m/s 749 mmHg 47%
18:00 +26°C° 0 mm 2 m/s 749 mmHg 49%
19:00 +25°C° 0 mm 2 m/s 749 mmHg 51%
20:00 +24°C° 0 mm 2 m/s 749 mmHg 53%
21:00 +23°C° 0 mm 2 m/s 749 mmHg 54%
22:00 +23°C° 0 mm 2 m/s 749 mmHg 56%
23:00 +21°C° 0 mm 2 m/s 749 mmHg 57%

27 Juillet, Mardi

Heure Température Précipitation Vent Pression Humidité
00:00 +21°C° 0 mm 2 m/s 749 mmHg 58%
01:00 +20°C° 0 mm 2 m/s 749 mmHg 60%
02:00 +20°C° 0 mm 2 m/s 749 mmHg 61%
03:00 +20°C° 0 mm 2 m/s 749 mmHg 62%
04:00 +19°C° 0 mm 2 m/s 749 mmHg 63%
05:00 +19°C° 0 mm 2 m/s 749 mmHg 64%
06:00 +21°C° 0 mm 2 m/s 750 mmHg 58%
07:00 +24°C° 0 mm 3 m/s 750 mmHg 53%
08:00 +26°C° 0 mm 3 m/s 750 mmHg 48%
09:00 +28°C° 0 mm 3 m/s 750 mmHg 44%
10:00 +29°C° 0 mm 3 m/s 750 mmHg 40%
11:00 +30°C° 0 mm 3 m/s 750 mmHg 36%
12:00 +31°C° 0 mm 3 m/s 749 mmHg 34%
13:00 +31°C° 0 mm 3 m/s 749 mmHg 32%
14:00 +32°C° 0 mm 2 m/s 749 mmHg 30%
15:00 +32°C° 0 mm 2 m/s 749 mmHg 31%
16:00 +31°C° 0 mm 2 m/s 749 mmHg 32%
17:00 +31°C° 0 mm 2 m/s 748 mmHg 32%
18:00 +29°C° 0 mm 2 m/s 748 mmHg 36%
19:00 +27°C° 0 mm 2 m/s 748 mmHg 40%
20:00 +25°C° 0 mm 2 m/s 748 mmHg 44%
21:00 +24°C° 0 mm 2 m/s 748 mmHg 44%
22:00 +24°C° 0 mm 2 m/s 748 mmHg 44%
23:00 +22°C° 0 mm 3 m/s 748 mmHg 45%

28 Juillet, Mercredi

Heure Température Précipitation Vent Pression Humidité
00:00 +22°C° 0 mm 3 m/s 748 mmHg 46%
01:00 +21°C° 0 mm 3 m/s 748 mmHg 48%
02:00 +21°C° 0 mm 3 m/s 748 mmHg 49%
03:00 +21°C° 0 mm 3 m/s 747 mmHg 53%
04:00 +21°C° 0 mm 3 m/s 747 mmHg 57%
05:00 +20°C° 0 mm 3 m/s 747 mmHg 61%
06:00 +24°C° 0 mm 3 m/s 747 mmHg 57%
07:00 +26°C° 0 mm 4 m/s 747 mmHg 52%
08:00 +28°C° 0 mm 5 m/s 747 mmHg 48%
09:00 +30°C° 0 mm 5 m/s 747 mmHg 44%
10:00 +32°C° 0 mm 5 m/s 747 mmHg 39%
11:00 +34°C° 0 mm 5 m/s 747 mmHg 35%
12:00 +34°C° 0 mm 5 m/s 746 mmHg 35%
13:00 +34°C° 0 mm 5 m/s 746 mmHg 35%
14:00 +34°C° 0 mm 5 m/s 745 mmHg 35%
15:00 +33°C° 0 mm 5 m/s 745 mmHg 39%
16:00 +32°C° 0 mm 4 m/s 745 mmHg 42%
17:00 +30°C° 0 mm 3 m/s 744 mmHg 46%
18:00 +29°C° 0 mm 3 m/s 744 mmHg 49%
19:00 +28°C° 0 mm 3 m/s 744 mmHg 52%
20:00 +26°C° 0 mm 3 m/s 744 mmHg 54%
21:00 +26°C° 0 mm 4 m/s 744 mmHg 57%
22:00 +25°C° 0 mm 4 m/s 744 mmHg 59%
23:00 +25°C° 0 mm 5 m/s 744 mmHg 62%

29 Juillet, Jeudi

Heure Température Précipitation Vent Pression Humidité
00:00 +23°C° 0.1 mm 5 m/s 743 mmHg 67%
01:00 +22°C° 0.1 mm 4 m/s 743 mmHg 72%
02:00 +21°C° 0.1 mm 4 m/s 743 mmHg 77%
03:00 +21°C° 0 mm 4 m/s 743 mmHg 79%
04:00 +20°C° 0 mm 4 m/s 743 mmHg 81%
05:00 +20°C° 0 mm 4 m/s 743 mmHg 83%
06:00 +21°C° 0 mm 4 m/s 743 mmHg 78%
07:00 +23°C° 0 mm 5 m/s 743 mmHg 72%
08:00 +25°C° 0 mm 5 m/s 743 mmHg 66%
09:00 +26°C° 0 mm 5 m/s 743 mmHg 62%
10:00 +28°C° 0 mm 5 m/s 743 mmHg 58%
11:00 +29°C° 0 mm 5 m/s 743 mmHg 53%
12:00 +29°C° 0 mm 6 m/s 743 mmHg 53%
13:00 +29°C° 0 mm 6 m/s 743 mmHg 52%
14:00 +30°C° 0 mm 6 m/s 743 mmHg 52%
15:00 +29°C° 0 mm 6 m/s 743 mmHg 54%
16:00 +29°C° 0 mm 6 m/s 743 mmHg 56%
17:00 +28°C° 0 mm 6 m/s 743 mmHg 58%
18:00 +27°C° 0 mm 4 m/s 743 mmHg 63%
19:00 +26°C° 0 mm 3 m/s 744 mmHg 69%
20:00 +24°C° 0 mm 2 m/s 744 mmHg 74%
21:00 +23°C° 0 mm 2 m/s 744 mmHg 77%
22:00 +23°C° 0 mm 2 m/s 744 mmHg 80%
23:00 +21°C° 0 mm 2 m/s 744 mmHg 82%
Voir plus

Nous avons besoin de votre consentement

Meteoprog et ses fournisseurs de services peuvent stocker et accéder à des données personnelles telles que des cookies, des identifiants d'appareils ou d'autres technologies similaires sur votre appareil et traiter ces données pour personnaliser le contenu et les publicités, ainsi que pour fournir des fonctionnalités de médias sociaux et analyser le trafic.

  • Stocker et/ou accéder à des informations sur votre appareil

    Des cookies, des identifiants d'appareils ou d'autres informations peuvent être stockés ou accessibles sur votre appareil aux fins indiquées ci-dessus.

  • Annonces et contenus personnalisés, mesure des annonces et des contenus, connaissance de l'audience et développement de produits

    Les annonces et le contenu peuvent être personnalisés en fonction d'un profil. D'autres données peuvent être ajoutées pour mieux personnaliser les annonces et le contenu. Les performances des publicités et du contenu peuvent être mesurées. Il est possible d'obtenir des informations sur le public qui a vu les publicités et le contenu. Ces données peuvent être utilisées pour développer ou améliorer l'expérience de l'utilisateur, les systèmes et les logiciels.

En cliquant sur "J'accepte", vous autorisez l'utilisation de cookies, des identifiants d'appareils, des balises web ou d'autres technologies similaires. Vos paramètres peuvent être modifiés dans le navigateur de votre appareil.

Dans certains cas, des intérêts légitimes peuvent être invoqués plutôt qu'un consentement. Vous pouvez en savoir plus à ce sujet dans notre Politique de confidentialité et de cookies.